Погода в Улусчерге

Россия / Республика Алтай     51°30′35″N   85°26′38″E
темп.,
°C
ветер,
м/с
пор.,
м/с
влажн.,
%
обл.,
%
осадки,
мм/ч
давл.,
гПа
погр.,
м
23 апреля, пт
пт2301:00−6зсз1289100 0.1 1038196
04:00−6сз2390100 0.4 1037232
07:00−6ссз2491100 0.9 1038340
10:00−4с2584100 0.9 1038758
13:00−2с3580100 2.4 1037983
16:00−1с3467100 0.9 10361272
19:00−2с2487100 1.3 1037559
22:00−4сз1397100 0.9 1037227
24 апреля, сб
сб2401:00−4зсз1296100 1.7 1036172
04:00−4сз1296100 0.8 1034165
07:00−4зсз1293100 1.5 1034161
10:00−1ссз2368100 0.3 10331113
13:00+1сз2363100 0.5 10311470
16:00+1сз4461100 0.4 10311558
19:000сз2469100 0.6 1032942
22:00−3зюз1192100 0.1 103416
25 апреля, вс
вс2501:00−4юз219472 0.2 103436
04:00−5юз119459 0.1 103420
07:00−5ююз119159 0.1 103545
10:00+1в116793 0.0 1033889
13:00+3ссв1251100 0.1 10301560
16:00+4с2155100 0.1 10291354
19:00+2ссв227490 0.3 1030673
22:00−4ююз11957 0.0 103210
26 апреля, пн
пн2601:00−4ююз219542 0.0 103218
04:00−3ю1194100 0.0 103122
07:00−2ююв1186100 0.0 103054
10:00+4ююв126299 0.0 1028631
13:00+8сз124636 0.0 10261609
16:00+9ссз23445 0.0 10251896
19:00+6ссз1173100 0.0 102625
22:00+2ююз2383100 0.0 102841
27 апреля, вт
вт2701:00+1ююз357996 0.0 102784
04:00+1ююз3778100 0.0 1027100
07:00+2ююз2577100 0.0 102797
10:00+5ююз3670100 0.1 1026425
13:00+7юз2468100 0.1 1025609
16:00+9ю2564100 0.0 1024718
19:00+9ю2377100 0.0 102290
22:00+5ююз3584100 0.0 102395